Location: Archamps
(46.1365°N, 6.1329°E)
Time: 17:47:20
(UTC+00:00)

CORIOLIS - Pass Details

Date: 28 January 2023
Orbit: 818 x 838 km, 98.7° (Epoch: 29 March)

Event Time Altitude Azimuth Distance (km) Brightness Sun altitude
Rises 16:58:34 0° 164° (SSE) 3,375 7.4 -4.7°
Reaches altitude 10° 17:00:55 10° 165° (SSE) 2,443 6.7 -5.1°
Maximum altitude 17:06:21 87° 256° (WSW) 842 4.3 -6.0°
Drops below altitude 10° 17:11:48 10° 345° (NNW) 2,450 6.6 -6.9°
Sets 17:14:10 0° 346° (NNW) 3,385 7.3 -7.3°
